Date String (YYYY-MM-DD hh:mm:ss) UTC,Instrument flags,Ambient pressure (hPa),Sample flow (lpm),Bypass flow (lpm),Sample temperature (°C),Ambient temperature (°C),ASC tube jacket temperature (°C),LED temperature (°C),Box temperature (°C),Sample RH (%),Span deviation,Mass concentration (μg/m³),Mass concentration (μg/m³),Mass concentration (μg/m³)
DateTimeUTC,F1_M11,P_M11,Q1_M11,Q2_M11,T1_M11,T2_M11,T3_M11,T4_M11,T5_M11,U1_M11,ZSPAN_M11,X0_M11,X2_M11,X1_M11
2023-03-10 22:00:00,,0814.0,5.01,0.00,23.3,22.2,00.0,31.9,25.2,17.6,-001.8,0026.38,0012.54,0011.38
2023-03-10 22:01:00,,0814.0,5.00,0.00,23.3,22.1,00.0,31.9,25.2,17.7,-001.7,0025.00,0012.49,0011.32
2023-03-10 22:02:00,,0814.2,5.00,0.00,23.3,22.1,00.0,32.0,25.2,17.9,-001.8,0024.43,0012.46,0011.28
2023-03-10 22:03:00,,0814.0,5.00,0.00,23.3,22.1,00.0,32.0,25.2,17.8,-001.7,0025.30,0012.45,0011.26
2023-03-10 22:04:00,,0814.0,5.00,0.00,23.3,22.1,00.0,32.0,25.2,17.8,-001.8,0024.24,0012.46,0011.27
2023-03-10 22:05:00,,0814.0,5.01,0.00,23.3,22.1,00.0,32.0,25.2,17.8,-001.8,0023.21,0012.45,0011.28
2023-03-10 22:06:00,,0814.0,5.00,0.00,23.3,22.1,00.0,32.0,25.2,17.8,-001.9,0022.91,0012.44,0011.28
2023-03-10 22:07:00,,0814.0,5.01,0.00,23.4,22.1,00.0,32.0,25.2,17.9,-001.9,0023.36,0012.43,0011.28
2023-03-10 22:08:00,,0813.9,5.00,0.00,23.4,22.1,00.0,32.0,25.2,18.0,-002.0,0023.97,0012.52,0011.31
2023-03-10 22:09:00,,0814.0,5.01,0.00,23.4,22.1,00.0,32.0,25.2,18.0,-001.6,0024.03,0012.62,0011.39
2023-03-10 22:10:00,,0814.0,4.99,0.00,23.4,22.1,00.0,32.0,25.2,17.8,-001.5,0024.28,0012.72,0011.46
2023-03-10 22:11:00,,0814.0,5.00,0.00,23.4,22.0,00.0,32.0,25.2,17.8,-001.7,0024.66,0012.86,0011.59
2023-03-10 22:12:00,,0814.0,5.00,0.00,23.4,22.0,00.0,32.0,25.2,17.9,-002.0,0024.70,0012.98,0011.72
2023-03-10 22:13:00,,0814.1,5.01,0.00,23.4,22.0,00.0,32.1,25.2,17.9,-001.9,0025.60,0013.05,0011.83
2023-03-10 22:14:00,,0814.2,5.00,0.00,23.4,22.0,00.0,32.1,25.2,17.9,-001.8,0024.67,0013.07,0011.90
2023-03-10 22:15:00,,0814.4,4.99,0.00,23.4,22.0,00.0,32.1,25.2,17.9,-001.8,0024.23,0013.11,0011.97
2023-03-10 22:16:00,,0814.4,5.00,0.00,23.4,22.0,00.0,32.1,25.2,17.9,-001.6,0024.42,0013.18,0012.01
2023-03-10 22:17:00,,0814.1,5.00,0.00,23.4,22.0,00.0,32.1,25.2,18.0,-001.5,0024.00,0013.20,0012.05
2023-03-10 22:18:00,,0814.3,4.99,0.00,23.4,22.0,00.0,32.1,25.2,17.9,-001.3,0023.63,0013.29,0012.11
2023-03-10 22:19:00,,0814.3,5.00,0.00,23.4,22.0,00.0,32.1,25.2,17.8,-001.5,0023.71,0013.32,0012.17
2023-03-10 22:20:00,,0813.9,5.00,0.00,23.4,22.1,00.0,32.1,25.3,18.0,-001.7,0024.04,0013.31,0012.19
2023-03-10 22:21:00,,0813.8,5.00,0.00,23.4,22.1,00.0,32.1,25.3,17.9,-001.9,0024.00,0013.28,0012.19
2023-03-10 22:22:00,,0813.9,5.00,0.00,23.4,22.1,00.0,32.1,25.3,17.9,-002.0,0022.79,0013.19,0012.15
2023-03-10 22:23:00,,0814.1,5.00,0.00,23.4,22.2,00.0,32.1,25.3,17.8,-002.3,0023.42,0013.19,0012.13
2023-03-10 22:24:00,,0814.0,5.00,0.00,23.4,22.2,00.0,32.1,25.3,17.9,-002.4,0023.14,0013.21,0012.11
2023-03-10 22:25:00,,0814.1,5.00,0.00,23.5,22.2,00.0,32.1,25.3,17.9,-002.5,0023.38,0013.20,0012.08
2023-03-10 22:26:00,,0814.3,4.99,0.00,23.5,22.2,00.0,32.1,25.3,17.8,-002.6,0023.15,0013.16,0012.04
2023-03-10 22:27:00,,0814.3,4.99,0.00,23.5,22.2,00.0,32.1,25.3,17.8,-002.9,0022.47,0013.08,0011.99
2023-03-10 22:28:00,,0814.2,5.00,0.00,23.5,22.2,00.0,32.2,25.3,17.8,-002.9,0023.22,0013.07,0011.95
2023-03-10 22:29:00,,0814.0,5.00,0.00,23.5,22.2,00.0,32.2,25.3,17.7,-003.0,0023.57,0013.01,0011.92
2023-03-10 22:30:00,,0814.2,5.01,0.00,23.5,22.2,00.0,32.2,25.3,17.8,-002.9,0023.40,0012.95,0011.88
2023-03-10 22:31:00,,0814.2,5.01,0.00,23.5,22.2,00.0,32.2,25.4,17.9,-002.8,0023.16,0012.94,0011.83
2023-03-10 22:32:00,,0814.1,5.00,0.00,23.5,22.2,00.0,32.2,25.4,17.7,-002.8,0024.69,0013.00,0011.84
2023-03-10 22:33:00,,0813.6,4.99,0.00,23.5,22.2,00.0,32.2,25.4,17.5,-002.7,0025.08,0013.11,0011.87
2023-03-10 22:34:00,,0813.6,4.99,0.00,23.5,22.2,00.0,32.2,25.3,17.6,-002.5,0025.34,0013.12,0011.87
2023-03-10 22:35:00,,0813.6,5.00,0.00,23.5,22.2,00.0,32.2,25.4,17.7,-002.4,0027.13,0013.20,0011.87
2023-03-10 22:36:00,,0813.6,5.00,0.00,23.5,22.2,00.0,32.2,25.4,17.6,-002.4,0026.81,0013.19,0011.87
2023-03-10 22:37:00,,0813.6,5.00,0.00,23.5,22.2,00.0,32.2,25.3,17.5,-002.3,0026.79,0013.24,0011.87
2023-03-10 22:38:00,,0814.0,5.01,0.00,23.5,22.3,00.0,32.2,25.4,17.7,-002.1,0027.46,0013.34,0011.91
2023-03-10 22:39:00,,0813.7,5.00,0.00,23.5,22.2,00.0,32.2,25.4,17.8,-002.2,0027.03,0013.38,0011.95
2023-03-10 22:40:00,,0813.6,5.01,0.00,23.5,22.2,00.0,32.2,25.4,17.7,-002.4,0027.99,0013.45,0011.97
2023-03-10 22:41:00,,0813.5,5.00,0.00,23.5,22.3,00.0,32.2,25.4,17.8,-002.4,0028.95,0013.52,0011.98
2023-03-10 22:42:00,,0813.5,5.00,0.00,23.5,22.2,00.0,32.2,25.4,17.8,-002.5,0029.28,0013.56,0011.99
2023-03-10 22:43:00,,0813.4,4.99,0.00,23.5,22.2,00.0,32.2,25.4,17.7,-002.5,0028.46,0013.62,0012.01
2023-03-10 22:44:00,,0813.5,4.98,0.00,23.5,22.1,00.0,32.2,25.4,17.8,-002.5,0028.83,0013.59,0011.99
2023-03-10 22:45:00,,0813.5,5.01,0.00,23.5,22.1,00.0,32.2,25.4,17.9,-002.5,0029.16,0013.52,0011.98
2023-03-10 22:46:00,,0813.5,5.00,0.00,23.5,22.1,00.0,32.2,25.4,17.8,-002.5,0026.77,0013.48,0011.97
2023-03-10 22:47:00,,0813.5,5.00,0.00,23.5,22.1,00.0,32.2,25.4,17.8,-002.6,0026.75,0013.49,0011.95
2023-03-10 22:48:00,,0813.4,5.00,0.00,23.5,22.1,00.0,32.3,25.4,18.0,-002.6,0027.93,0013.57,0011.94
2023-03-10 22:49:00,,0813.3,5.00,0.00,23.5,22.1,00.0,32.3,25.4,17.9,-002.7,0027.12,0013.48,0011.87
2023-03-10 22:50:00,,0813.5,4.99,0.00,23.5,22.2,00.0,32.3,25.4,17.8,-002.4,0026.79,0013.28,0011.72
2023-03-10 22:51:00,,0813.5,5.00,0.00,23.6,22.1,00.0,32.3,25.4,17.8,-002.3,0025.77,0013.10,0011.57
2023-03-10 22:52:00,,0813.5,5.00,0.00,23.6,22.2,00.0,32.3,25.4,17.9,-002.3,0025.35,0012.96,0011.45
2023-03-10 22:53:00,,0813.5,4.99,0.00,23.6,22.2,00.0,32.3,25.4,17.7,-002.5,0024.59,0012.65,0011.16
2023-03-10 22:54:00,,0813.5,4.99,0.00,23.6,22.2,00.0,32.3,25.4,17.6,-002.3,0023.96,0012.14,0010.72
2023-03-10 22:55:00,,0813.9,5.01,0.00,23.6,22.2,00.0,32.3,25.4,17.6,-002.3,0022.63,0011.62,0010.30
2023-03-10 22:56:00,,0813.9,5.00,0.00,23.6,22.2,00.0,32.3,25.4,17.6,-002.3,0021.65,0011.24,0009.89
2023-03-10 22:57:00,,0813.6,5.00,0.00,23.6,22.2,00.0,32.3,25.4,17.6,-002.0,0021.84,0010.84,0009.51
2023-03-10 22:58:00,,0813.6,4.98,0.00,23.6,22.1,00.0,32.3,25.4,17.5,-001.8,0021.51,0010.43,0009.16
2023-03-10 22:59:00,,0813.6,4.99,0.00,23.6,22.1,00.0,32.3,25.4,17.6,-001.9,0019.83,0010.01,0008.81
